Location: Newark
(22.3060°N, 114.2134°E)
Time: 04:10:53
(UTC+00:00)

Transit 4A - All Passes

Search period start: 26 July 2021 00:00
Search period end: 05 August 2021 00:00
Orbit: 872 x 972 km, 66.8° (Epoch: 25 July)

Date Brightness Start Highest point End Pass type
(mag) Time Alt. Az. Time Alt. Az. Time Alt. Az.
26 Jul - 03:21:05 10° NNW 03:27:01 82° ENE 03:33:05 10° SSE daylight
26 Jul - 16:31:26 10° SSW 16:37:27 77° ESE 16:43:20 10° NNE visible
26 Jul - 18:23:08 10° WNW 18:24:11 10° WNW 18:25:13 10° NW visible
27 Jul - 01:46:48 10° NNE 01:49:42 14° ENE 01:52:36 10° E daylight
27 Jul - 03:30:26 10° NNW 03:36:15 61° WSW 03:42:14 10° S daylight
27 Jul - 14:59:22 10° ESE 15:00:57 11° ESE 15:02:31 10° E night (unlit)
27 Jul - 16:40:46 10° SSW 16:46:43 65° WNW 16:52:33 10° NNE visible
28 Jul - 01:54:38 10° N 01:59:11 23° ENE 02:03:48 10° ESE daylight
28 Jul - 03:40:04 10° NW 03:45:28 37° WSW 03:50:58 10° S daylight
28 Jul - 15:05:51 10° SSE 15:10:04 20° ESE 15:14:12 10° ENE night (unlit)
28 Jul - 16:50:29 10° SW 16:56:02 39° WNW 17:01:31 10° N visible
29 Jul - 02:03:11 10° N 02:08:36 36° ENE 02:14:06 10° SE daylight
29 Jul - 03:50:09 10° WNW 03:54:37 22° WSW 03:59:10 10° SSW daylight
29 Jul - 15:13:54 10° S 15:19:13 33° ESE 15:24:25 10° NE visible
29 Jul - 17:00:41 10° WSW 17:05:26 24° WNW 17:10:08 10° N visible
30 Jul - 02:12:05 10° NNW 02:17:56 59° ENE 02:23:54 10° SE daylight
30 Jul - 04:01:16 10° W 04:03:45 13° WSW 04:06:14 10° SW daylight
30 Jul - 15:22:32 10° S 15:28:24 56° ESE 15:34:08 10° NNE visible
30 Jul - 17:11:39 10° W 17:14:54 15° WNW 17:18:08 10° NNW visible
31 Jul - 02:21:15 10° NNW 02:27:12 85° WSW 02:33:17 10° SSE daylight
31 Jul - 15:31:37 10° SSW 15:37:38 89° WNW 15:43:31 10° NNE visible
01 Aug - 00:46:20 10° NNE 00:49:59 17° ENE 00:53:39 10° E daylight
01 Aug - 02:30:42 10° NW 02:36:26 51° WSW 02:42:18 10° S daylight
01 Aug - 13:58:11 10° SE 14:01:04 14° ESE 14:03:55 10° ENE night (unlit)
01 Aug - 15:41:04 10° SW 15:46:54 54° WNW 15:52:39 10° N visible
02 Aug - 00:54:30 10° N 00:59:26 27° ENE 01:04:27 10° ESE daylight
02 Aug - 02:40:28 10° NW 02:45:37 31° WSW 02:50:52 10° SSW daylight
02 Aug - 14:05:31 10° SSE 14:10:11 24° ESE 14:14:47 10° NE night (unlit)
02 Aug - 15:50:57 10° SW 15:56:16 33° WNW 16:01:30 10° N visible
03 Aug - 01:03:12 10° N 01:08:49 43° ENE 01:14:32 10° SE daylight
03 Aug - 02:50:48 10° WNW 02:54:46 18° WSW 02:58:47 10° SSW daylight
03 Aug - 14:13:49 10° S 14:19:22 40° ESE 14:24:48 10° NE visible
03 Aug - 16:01:22 10° WSW 16:05:41 21° WNW 16:09:57 10° NNW visible
04 Aug - 01:12:12 10° NNW 01:18:08 71° ENE 01:24:12 10° SSE daylight
04 Aug - 03:03:34 10° W 03:03:52 10° WSW 03:04:11 10° WSW daylight
04 Aug - 14:22:37 10° SSW 14:28:34 67° ESE 14:34:23 10° NNE visible
04 Aug - 16:12:52 10° W 16:15:11 12° WNW 16:17:30 10° NW visible
04 Aug - 23:38:38 10° NE 23:40:43 12° ENE 23:42:48 10° ENE daylight
